Weather History for KPKB - January, 2014

Change the Weather History Date:

Monday, January 13, 2014

  Actual Average Record
Temperature  
Mean Temperature 45 °F 31 °F  
Max Temperature 54 °F 40 °F 74 °F (2005)
Min Temperature 35 °F 23 °F -12 °F (1912)
Degree Days  
Heating Degree Days 20 34  
Month to date heating degree days 453 435  
Cooling Degree Days 0 0  
Month to date cooling degree days 0 0  
Year to date cooling degree days 0 0  
Moisture  
Dew Point 36 °F    
Average Humidity 66    
Maximum Humidity 93    
Minimum Humidity 38    
Precipitation  
Precipitation 0.31 in 0.09 in 0.48 in (2005)
Month to date precipitation 1.46 1.22  
Year to date precipitation 1.46 1.22  
Sea Level Pressure  
Sea Level Pressure 29.88 in    
Wind  
Wind Speed 9 mph (South)    
Max Wind Speed 20 mph    
Max Gust Speed 27 mph    
Visibility 9 miles    
Events Rain    
T = Trace of Precipitation, MM = Missing Value Source: NWS Daily Summary

Daily Weather History Graph

Daily Weather History Graph

Search for Another Location

Airport or City:

Trip Planner

Search our weather history database for the weather conditions in past years. The results will help you decide how hot, cold, wet, or windy it might be!

Date:

Astronomy

Jan. 13, 2014 Rise Set
Actual Time 7:44 AM EST 5:24 PM EST
Civil Twilight 7:15 AM EST 5:54 PM EST
Nautical Twilight 6:42 AM EST 6:27 PM EST
Astronomical Twilight 6:09 AM EST 6:59 PM EST
Moon 3:38 PM EST (1/13) 5:32 AM EST (1/13)
Length of Visible Light 10h 39m
Length of Day
9h 39m
Waxing Gibbous, 95% of the Moon is Illuminated
Jan 13
Waxing Gibbous
Jan 15
Full
Jan 24
Last Quarter
Jan 30
New
Feb 6
First Quarter

Hourly Weather History & Observations

Time (EST) Temp. Windchill Dew Point Humidity Pressure Visibility Wind Dir Wind Speed Gust Speed Precip Events Conditions
12:53 AM 37.9 °F 32.7 °F 28.0 °F 68% 30.02 in 10.0 mi SSE 6.9 mph - N/A   Clear
1:53 AM 39.0 °F 34.0 °F 28.0 °F 65% 30.00 in 10.0 mi South 6.9 mph - N/A   Clear
2:53 AM 39.0 °F 35.7 °F 27.0 °F 62% 30.00 in 10.0 mi SSE 4.6 mph - N/A   Clear
3:53 AM 39.0 °F 35.7 °F 27.0 °F 62% 30.01 in 10.0 mi South 4.6 mph - N/A   Clear
4:53 AM 37.9 °F 33.5 °F 27.0 °F 65% 29.99 in 10.0 mi South 5.8 mph - N/A   Clear
5:53 AM 37.0 °F 32.4 °F 26.1 °F 65% 30.00 in 10.0 mi South 5.8 mph - N/A   Clear
6:53 AM 36.0 °F 31.1 °F 26.1 °F 67% 29.99 in 10.0 mi SSE 5.8 mph - N/A   Clear
7:53 AM 39.9 °F 35.1 °F 26.1 °F 58% 29.97 in 10.0 mi South 6.9 mph - N/A   Clear
8:53 AM 45.0 °F 40.6 °F 26.1 °F 48% 29.93 in 10.0 mi South 8.1 mph - N/A   Clear
9:53 AM 46.9 °F - 26.1 °F 44% 29.94 in 10.0 mi South 11.5 mph - N/A   Overcast
10:53 AM 50.0 °F - 28.0 °F 43% 29.94 in 10.0 mi SSW 8.1 mph - N/A   Mostly Cloudy
11:53 AM 53.1 °F - 28.9 °F 40% 29.87 in 10.0 mi SSW 12.7 mph 20.7 mph N/A   Clear
12:53 PM 53.1 °F - 30.0 °F 41% 29.84 in 10.0 mi SSW 15.0 mph 24.2 mph 0.00 in Rain Light Rain
1:53 PM 51.1 °F - 36.0 °F 56% 29.85 in 10.0 mi SSW 12.7 mph - 0.00 in Rain Light Rain
2:53 PM 48.0 °F - 39.9 °F 74% 29.86 in 9.0 mi South 11.5 mph - 0.02 in Rain Light Rain
3:53 PM 46.9 °F - 43.0 °F 86% 29.86 in 9.0 mi SSW 11.5 mph - 0.03 in Rain Light Rain
4:53 PM 46.9 °F - 43.0 °F 86% 29.84 in 10.0 mi SSW 10.4 mph - 0.01 in Rain Light Rain
5:53 PM 46.9 °F - 43.0 °F 86% 29.83 in 8.0 mi South 11.5 mph 19.6 mph 0.03 in Rain Light Rain
6:53 PM 46.9 °F - 44.1 °F 90% 29.82 in 9.0 mi South 9.2 mph - 0.04 in Rain Light Rain
7:53 PM 46.9 °F - 45.0 °F 93% 29.81 in 9.0 mi South 9.2 mph - 0.03 in Rain Light Rain
8:14 PM 46.9 °F - 45.0 °F 93% 29.80 in 9.0 mi South 8.1 mph - 0.01 in Rain Light Rain
8:53 PM 46.9 °F - 45.0 °F 93% 29.81 in 4.0 mi South 9.2 mph - 0.04 in Rain Light Rain
9:26 PM 48.0 °F - 45.0 °F 89% 29.79 in 7.0 mi SSW 12.7 mph 19.6 mph 0.04 in Rain Light Rain
9:40 PM 48.0 °F - 46.0 °F 93% 29.80 in 7.0 mi South 11.5 mph - 0.05 in Rain Rain
9:53 PM 48.0 °F - 45.0 °F 89% 29.80 in 7.0 mi SSW 12.7 mph 24.2 mph 0.07 in Rain Light Rain
10:53 PM 46.9 °F - 44.1 °F 90% 29.79 in 10.0 mi SSW 8.1 mph - 0.03 in Rain Light Rain
11:00 PM 46.9 °F - 44.1 °F 90% 29.78 in 10.0 mi SSW 10.4 mph - 0.00 in Rain Light Rain
11:14 PM 46.9 °F - 44.1 °F 90% 29.78 in 10.0 mi SSW 9.2 mph - 0.00 in Rain Light Rain
11:53 PM 46.9 °F - 44.1 °F 90% 29.77 in 10.0 mi SSW 9.2 mph - 0.01 in Rain Light Rain